Home   Weather   43°10'N, 88°01'W   Past weeks
Flag for USA

Past Weather in 43°10'N, 88°01'W, USA — Yesterday and Last 2 Weeks

Now
79 °F

Sunny.


Feels Like: 81 °F
Forecast: 82 / 71 °F
Wind: 5 mph from East

Location: Milwaukee / Timmerman

Current Time: Jul 17, 2019 at 11:39:12 am

Latest Report: Jul 17, 2019 at 10:45 am


Visibility: 10 mi

Pressure: 29.96 "Hg

Humidity: 65%

Dew Point: 66 °F

Location of 43°10'N, 88°01'WLocation

Past Weather in 43°10'N, 88°01'W — Graph

°F

43°10'N, 88°01'W Temperature Yesterday

Maximum temperature yesterday: 86 °F (at 3:45 pm)
Minimum temperature yesterday: 70 °F (at 3:35 am)
Average temperature yesterday: 75 °F

High & Low Weather Summary for the Past Weeks

 TemperatureHumidityPressure
High90 °F (Jul 2, 2:45 pm)88% (Jul 9, 4:35 am)30.18 "Hg (Jul 9, 4:35 am)
Low54 °F (Jul 8, 5:35 am)26% (Jul 8, 2:45 pm)29.82 "Hg (Jul 2, 2:45 pm)
Average71 °F64%29.99 "Hg
* Reported Jul 2 9:45 am — Jul 17 9:45 am, 43°10'N, 88°01'W. Weather by CustomWeather, © 2019

Note: Actual official high and low records may vary slightly from our data, if they occured in-between our weather recording intervals... More about our weather records

Advertising

43°10'N, 88°01'W Weather History for the Previous 24 Hours

Scroll right to see more
 ConditionsComfort  
Time TempWeatherWind HumidityBarometerVisibility
9:45 am
Wed, Jul 17
77 °FSunny.6 mph69%29.95 "Hg10 mi
8:45 am75 °FScattered clouds.7 mph74%29.93 "Hg10 mi
7:45 am77 °FSunny.7 mph69%29.92 "Hg10 mi
7:15 am73 °FSunny.3 mph78%29.91 "Hg10 mi
6:55 am73 °FScattered clouds.No wind74%29.91 "Hg10 mi
6:35 am73 °FScattered clouds.5 mph74%29.90 "Hg10 mi
6:15 am73 °FScattered clouds.3 mph74%29.90 "Hg10 mi
5:55 am73 °FSunny.5 mph74%29.90 "Hg10 mi
5:35 am73 °FSunny.3 mph74%29.89 "Hg10 mi
5:15 am73 °FClear.5 mph74%29.90 "Hg10 mi
4:55 am73 °FClear.5 mph74%29.90 "Hg10 mi
4:35 am73 °FPassing clouds.6 mph74%29.89 "Hg10 mi
4:15 am73 °FPassing clouds.6 mph74%29.89 "Hg10 mi
3:55 am73 °FClear.6 mph78%29.89 "Hg10 mi
3:35 am73 °FClear.No wind78%29.87 "Hg10 mi
3:15 am73 °FPassing clouds.3 mph78%29.88 "Hg10 mi
2:55 am73 °FPassing clouds.No wind78%29.87 "Hg10 mi
2:35 am73 °FClear.No wind78%29.86 "Hg10 mi
2:15 am73 °FClear.No wind78%29.87 "Hg10 mi
1:55 am73 °FClear.No wind83%29.87 "Hg10 mi
1:35 am73 °FClear.No wind83%29.88 "Hg10 mi
1:15 am73 °FClear.No wind83%29.88 "Hg10 mi
12:55 am73 °FClear.No wind83%29.89 "Hg10 mi
12:35 am73 °FClear.No wind83%29.88 "Hg10 mi
12:15 am75 °FClear.No wind78%29.88 "Hg10 mi
11:55 pm
Tue, Jul 16
75 °FClear.3 mph78%29.88 "Hg10 mi
11:35 pm75 °FClear.No wind78%29.88 "Hg10 mi
11:15 pm77 °FClear.No wind74%29.88 "Hg10 mi
10:55 pm77 °FClear.3 mph74%29.88 "Hg10 mi
10:35 pm77 °FClear.3 mph74%29.88 "Hg10 mi
10:15 pm77 °FClear.3 mph74%29.88 "Hg10 mi
9:55 pm77 °FClear.3 mph74%29.88 "Hg10 mi
9:35 pm77 °FClear.5 mph74%29.88 "Hg10 mi
9:15 pm79 °FClear.5 mph65%29.88 "Hg10 mi
8:55 pm79 °FClear.5 mph65%29.87 "Hg10 mi
7:46 pm82 °FSunny.7 mph58%29.86 "Hg10 mi
6:46 pm82 °FScattered clouds.7 mph58%29.86 "Hg10 mi
5:45 pm84 °FScattered clouds.8 mphN/A29.86 "Hg10 mi
4:45 pm86 °FScattered clouds.6 mph49%29.86 "Hg10 mi
3:45 pm86 °FScattered clouds.5 mph49%29.87 "Hg10 mi
2:45 pm82 °FPartly sunny.7 mph55%29.89 "Hg10 mi
1:45 pm82 °FScattered clouds.7 mph55%29.90 "Hg10 mi
12:45 pm81 °FScattered clouds.9 mph58%29.92 "Hg10 mi
11:45 am79 °FScattered clouds.12 mph61%29.94 "Hg10 mi
Weather by CustomWeather, © 2019

See weather overview